Vorticity
2 3 2 3 3 3 3 3 3 4 4 5 5 6 6 6 6 6 6 6 6 6 7 8 8 8 8 7 8 6 4 4 4 7 10 11 13 10 8 10 9 9 9 7 6 7 9 8 8 11 16 11 1 -1 -1 1 2 1 4 4 6 8 6 3 3 4 5 7 10 10 10 9 2 -0 3 3 5 6 4 7 6 6 7 8 7 4 5 9
2 2 2 2 2 2 2 2 2 2 2 2 3 3 4 4 5 5 6 6 6 6 6 7 8 8 8 8 8 8 5 5 4 3 7 9 9 10 10 8 6 4 6 8 6 6 8 8 7 8 13 14 9 2 -1 2 1 -0 3 4 5 6 4 6 6 5 6 6 8 7 4 6 6 4 5 8 9 7 7 7 6 7 7 7 6 5 4 7
5 5 4 4 4 4 4 3 3 2 2 2 2 2 2 2 3 4 4 5 6 6 6 6 7 8 8 9 8 8 7 5 6 3 3 6 6 8 12 13 10 2 1 5 7 6 4 6 11 11 11 14 15 7 1 2 2 1 3 4 5 1 -0 4 4 5 4 1 5 5 1 3 5 4 5 9 8 6 9 7 5 7 7 7 8 7 4 8
7 7 7 7 7 7 7 6 6 5 5 4 4 3 2 2 2 2 2 3 4 5 6 6 6 7 7 9 9 8 8 7 7 5 2 3 5 6 8 12 13 7 3 4 6 5 2 5 10 10 8 13 20 13 2 4 4 3 3 3 5 3 2 3 3 6 1 -1 8 8 3 5 5 4 5 8 8 7 11 9 6 8 7 6 9 9 5 7
8 8 8 8 8 8 8 8 8 8 7 7 7 6 5 5 3 3 2 1 2 3 4 6 6 6 6 7 8 9 9 8 8 7 4 4 5 5 5 8 11 12 10 7 6 6 5 8 7 7 6 8 22 21 5 4 4 3 4 4 5 4 6 6 5 4 -2 -1 6 5 6 9 7 4 4 7 8 7 12 14 8 7 7 7 8 10 7 6
9 9 9 9 9 9 9 9 9 8 9 8 8 8 7 7 6 6 5 3 2 2 2 4 5 5 6 6 7 9 9 9 10 9 6 4 5 5 4 4 7 10 13 10 7 6 6 9 5 5 7 5 19 23 7 2 3 2 4 3 5 4 4 6 5 2 -1 4 9 8 8 7 6 6 4 5 8 6 9 12 8 6 8 9 8 9 9 7
11 11 10 10 10 10 10 9 9 9 9 9 9 9 8 8 8 8 7 7 5 4 3 2 3 4 5 6 6 7 8 9 10 10 7 5 5 7 6 3 4 7 11 13 10 8 7 9 6 5 7 7 15 18 10 7 3 2 4 2 4 4 3 3 4 3 4 10 12 9 7 6 7 6 3 5 8 5 6 9 7 6 6 8 8 7 9 8
12 12 12 12 12 12 12 11 11 11 10 10 9 9 9 9 8 8 8 8 7 7 6 4 3 2 2 4 6 6 6 8 9 9 9 7 5 6 8 5 4 5 7 10 9 8 8 8 8 6 5 5 12 12 11 12 6 2 3 4 5 4 4 2 3 3 5 8 7 8 8 7 7 2 4 9 6 3 7 9 6 5 6 6 8 8 7 7
12 12 12 12 13 13 13 13 13 13 13 12 12 10 10 10 9 9 9 9 8 8 8 7 6 3 3 3 4 6 5 6 6 8 10 10 7 4 7 7 5 5 5 8 9 10 9 8 6 6 4 3 9 11 9 14 11 4 3 4 5 7 6 3 2 2 4 5 3 7 5 5 6 1 8 11 3 5 9 6 4 8 9 7 7 9 8 6
10 10 10 10 10 10 11 11 11 12 13 14 14 13 13 12 11 10 10 10 9 9 8 8 8 7 5 3 3 3 3 5 6 6 8 10 10 6 6 8 7 5 6 7 10 13 11 8 5 5 4 2 6 9 9 13 10 4 2 3 3 7 8 4 3 1 3 3 4 6 0 1 4 1 9 7 2 11 10 3 6 9 8 6 5 7 9 8
7 6 7 7 6 7 7 7 8 7 8 10 12 12 13 13 14 13 12 11 10 10 10 9 9 9 8 7 4 2 2 4 5 6 7 8 10 9 6 7 8 6 6 6 8 13 12 8 5 4 4 3 5 6 7 10 7 2 2 2 0 3 6 5 4 4 5 4 7 9 1 1 3 3 9 3 2 11 8 6 9 7 4 5 7 7 8 10
4 3 3 3 3 3 3 4 4 4 4 6 7 6 8 9 11 12 13 13 12 11 11 11 10 10 11 10 6 4 3 3 4 5 6 6 8 10 8 6 7 6 6 6 5 8 10 10 7 5 4 4 5 5 5 8 7 3 2 3 2 1 1 2 5 7 8 7 9 10 7 6 4 5 8 4 3 5 5 9 9 7 3 4 8 7 7 9
3 3 2 2 2 1 2 2 2 2 2 4 4 2 3 5 5 7 9 11 12 12 12 12 12 11 12 12 9 7 7 3 2 3 4 5 6 8 9 6 5 6 5 6 5 4 6 10 10 6 4 5 5 4 6 9 7 4 2 3 3 3 3 3 7 8 6 7 9 8 7 5 1 4 8 5 2 1 4 9 9 8 3 4 9 6 7 8
5 5 4 4 4 3 4 3 3 3 3 4 4 2 2 2 3 3 4 8 8 9 11 12 12 12 12 13 12 10 9 6 3 3 4 5 5 5 8 8 7 6 5 5 6 6 6 8 11 8 5 5 4 4 7 8 7 5 3 4 3 3 6 3 3 6 5 6 8 7 4 0 0 5 7 2 0 0 3 6 8 8 4 4 6 6 8 7
5 5 6 6 5 6 6 6 6 5 5 6 5 4 3 3 3 1 3 7 4 4 7 9 10 11 11 12 14 12 10 10 7 5 4 4 5 4 5 8 8 6 5 4 4 6 6 7 9 11 11 8 3 3 6 7 7 4 1 5 4 4 7 -0 -3 3 5 6 8 5 1 2 6 7 5 1 1 2 2 4 6 5 5 7 7 6 8 7
8 9 9 10 9 10 11 10 11 10 10 9 8 8 6 5 4 2 5 6 1 2 5 5 7 9 9 10 13 13 11 13 13 9 6 4 4 4 2 4 6 7 7 5 4 4 5 6 6 10 13 10 6 4 4 5 7 3 2 7 6 8 9 1 1 4 2 5 7 4 -0 2 10 10 4 0 2 5 2 2 4 3 5 9 9 6 7 7
9 8 7 7 6 6 6 6 7 9 10 11 11 11 10 9 8 5 8 7 2 2 2 2 5 7 7 7 9 11 9 12 16 14 10 6 4 4 4 3 4 7 9 8 6 5 5 6 5 6 10 12 10 6 3 5 8 5 5 10 9 12 12 4 4 5 3 3 2 3 0 2 11 10 3 -0 3 5 1 0 4 4 6 10 9 6 6 7
4 3 3 2 2 2 1 -1 -1 -0 2 7 10 12 13 13 11 10 10 9 6 3 2 3 2 3 6 6 6 8 8 9 13 15 14 12 8 5 4 3 1 3 6 7 8 7 5 7 7 5 5 8 10 7 5 9 13 8 6 10 10 11 13 10 8 5 5 4 1 3 2 5 17 12 3 3 4 4 1 0 3 3 7 10 8 6 5 6
1 2 3 3 3 5 4 1 -1 -3 -3 0 3 8 12 13 13 12 11 10 9 7 6 6 2 2 5 6 6 7 7 7 8 11 14 14 13 10 5 3 2 1 2 4 7 9 7 6 6 6 5 6 10 12 12 12 12 7 7 11 10 8 11 13 11 5 5 6 5 6 3 7 20 15 6 5 4 5 3 -0 1 3 8 10 8 7 4 4
1 3 5 5 6 8 9 5 1 -2 -3 -2 2 8 13 16 16 15 12 11 11 9 9 8 5 4 4 3 5 7 7 7 6 6 10 12 13 13 8 5 3 2 2 3 5 8 9 8 5 8 10 9 11 15 16 15 11 6 5 10 11 10 11 13 12 7 5 6 7 7 4 6 14 14 10 6 4 6 3 -1 -0 3 7 9 9 7 3 4
2 3 6 8 10 10 9 5 2 1 1 0 3 8 14 17 19 18 17 17 15 12 10 10 8 7 6 4 4 5 6 8 6 5 7 9 11 12 11 8 5 3 5 5 3 3 6 9 8 8 8 6 7 10 13 15 14 10 5 6 10 12 13 13 12 8 4 6 8 7 8 7 7 11 10 5 3 4 4 2 4 6 6 8 10 7 5 7
5 5 9 12 11 9 7 6 6 6 7 8 8 10 12 14 17 17 19 20 18 16 14 12 11 9 9 7 5 4 5 7 8 6 5 6 8 11 12 10 7 5 5 4 2 2 4 7 12 9 6 5 5 6 8 10 14 14 9 6 6 11 15 13 11 9 3 6 9 6 10 10 5 8 9 5 3 4 4 3 5 8 4 3 10 8 6 7
9 8 10 14 13 13 13 13 15 15 15 16 15 16 17 18 20 19 20 21 19 21 20 16 14 12 10 9 9 6 5 6 8 8 7 6 7 8 10 11 10 7 5 4 2 3 3 5 15 13 5 5 5 5 7 7 11 13 12 11 5 6 15 15 13 10 3 5 8 6 10 13 7 4 6 5 3 2 2 -0 3 8 2 -1 9 10 5 4
12 11 13 18 19 21 20 20 23 24 23 24 24 24 25 26 26 23 24 23 19 21 23 22 20 18 13 10 10 9 7 6 7 9 9 8 6 6 9 11 11 9 6 6 4 5 2 -0 11 13 5 6 6 5 7 6 8 11 12 12 6 4 12 16 14 9 5 6 8 9 13 14 9 4 4 5 2 0 1 -1 3 7 2 2 11 11 5 3
14 17 17 18 21 22 22 25 28 28 30 35 36 33 29 26 25 27 28 25 23 23 23 24 23 22 20 15 12 11 11 9 8 10 9 11 9 6 9 9 11 12 9 8 6 5 4 0 6 8 4 8 6 4 7 7 7 9 11 10 6 4 7 14 13 7 6 7 6 11 14 13 8 4 6 5 0 2 3 0 4 6 2 3 6 7 7 4
18 20 20 20 23 23 24 29 30 28 29 30 27 27 25 23 22 26 26 22 23 24 25 24 22 24 24 20 17 14 15 14 13 13 8 10 13 9 7 7 10 13 10 10 9 6 5 4 5 4 3 7 7 4 5 7 7 9 15 16 10 7 5 9 13 9 5 5 6 9 9 9 7 7 11 8 1 2 3 1 5 4 0 1 1 3 7 5
19 19 23 24 22 20 21 23 20 17 16 12 10 13 13 13 12 15 18 20 23 26 28 29 29 32 28 24 23 17 17 16 14 18 13 7 12 12 9 8 6 10 11 9 9 8 7 5 4 4 3 5 9 5 2 7 8 7 18 20 11 8 5 4 10 10 6 5 7 8 6 7 6 8 12 11 6 2 1 2 4 3 -1 -1 2 2 1 5
20 21 23 19 15 15 15 12 8 8 7 4 6 8 7 7 5 3 6 8 10 11 16 19 23 29 28 29 30 21 20 20 14 19 19 11 13 12 12 15 11 8 10 10 10 9 10 9 5 3 3 5 8 4 3 10 7 4 14 18 13 10 6 4 6 9 8 7 7 8 6 4 6 7 7 8 8 2 0 2 3 3 2 0 2 1 -3 2
19 20 17 10 8 9 6 4 5 5 4 2 3 3 3 4 2 0 -0 0 1 3 7 10 11 15 17 23 28 21 20 23 19 23 23 14 15 17 12 13 16 11 5 8 11 10 11 13 10 5 3 5 4 3 7 10 6 4 9 15 15 11 8 5 4 7 8 3 4 9 5 1 6 8 2 4 7 5 7 7 4 4 3 2 2 0 0 3
16 15 9 5 4 3 0 1 3 2 2 4 6 7 7 7 5 2 2 3 3 3 5 8 9 12 12 15 22 22 17 15 15 24 29 17 13 19 16 10 14 15 8 5 8 9 11 11 10 7 3 1 1 3 7 8 7 6 5 10 15 12 10 6 3 7 4 -2 3 10 5 -2 7 13 4 3 9 13 15 11 6 4 1 2 2 -1 3 6
15 10 5 4 2 1 2 1 1 4 10 16 18 20 20 19 18 16 16 16 13 10 10 11 12 13 12 9 13 18 19 15 11 16 27 27 17 15 18 13 11 15 14 7 5 8 11 8 7 8 4 0 -1 2 5 4 8 11 3 5 11 11 11 7 5 4 -2 -2 5 9 7 -3 4 20 12 3 11 18 18 12 9 10 7 8 9 3 2 5
15 10 5 4 1 1 2 2 5 12 17 18 16 17 17 17 19 21 22 21 18 18 17 15 14 14 15 13 10 11 14 17 17 14 16 25 25 17 16 16 10 10 13 10 6 5 7 10 12 11 7 3 -1 2 5 1 6 12 6 3 6 9 12 8 4 -0 -5 1 8 8 8 -5 -4 20 17 3 12 18 19 19 14 12 12 12 10 5 3 4
16 14 6 4 3 2 1 4 12 17 16 14 12 12 13 14 14 14 14 13 13 17 20 18 15 13 12 13 12 11 10 9 15 19 16 18 23 22 19 19 14 10 12 13 9 5 7 11 13 11 8 6 2 1 4 3 4 9 7 4 4 6 11 10 5 1 -3 2 8 8 5 -9 -7 20 21 3 7 14 17 21 14 5 7 9 7 6 10 11
19 15 5 4 3 2 4 10 16 16 14 15 13 13 14 13 11 7 6 9 11 14 20 22 23 21 17 15 12 10 10 7 5 11 15 16 20 23 22 22 20 13 11 14 12 7 6 5 6 10 9 7 6 3 1 4 7 9 8 6 6 5 8 13 9 4 1 2 6 4 -1 -5 -3 17 26 9 -1 9 17 16 8 2 4 4 0 -2 2 9
19 11 5 4 2 3 10 16 17 14 13 13 13 15 15 10 4 1 2 5 5 3 6 10 13 18 20 22 19 13 10 9 5 5 8 10 15 22 25 24 22 17 12 13 15 10 5 2 5 12 10 5 6 5 0 2 7 8 5 5 9 6 3 11 13 10 6 -0 0 -1 -5 -3 -2 7 26 21 1 7 21 16 6 4 3 -2 -5 -6 -8 -4
15 8 4 4 5 10 15 16 14 14 12 11 14 19 17 7 1 2 3 4 3 2 3 2 1 5 10 15 20 19 16 13 9 7 6 6 8 16 25 27 24 20 14 11 14 14 7 5 8 11 11 8 6 6 4 2 4 8 6 4 7 4 4 11 13 14 11 -1 -1 6 -1 -4 -3 0 15 22 11 10 15 11 6 7 6 -0 -2 1 0 -2
12 8 6 7 11 14 14 13 13 13 12 12 16 18 15 8 4 4 4 5 6 7 7 7 6 5 4 5 8 12 17 19 16 11 8 8 8 9 18 27 27 21 18 13 13 15 11 7 8 10 12 12 6 6 7 5 3 7 10 4 0 2 8 11 9 12 15 3 1 10 3 -4 4 8 9 14 16 14 8 4 7 10 7 -1 -3 1 6 9
10 8 9 11 12 12 12 12 13 13 14 15 17 16 13 10 7 6 7 8 9 9 9 9 10 11 10 9 7 5 7 13 18 17 13 9 10 9 10 21 28 23 20 17 13 15 14 8 6 10 12 12 8 6 8 7 1 4 11 7 -0 3 8 9 7 7 12 9 6 10 7 1 5 9 10 10 11 12 13 13 14 15 10 5 6 10 11 10
8 10 11 11 11 12 13 13 14 14 15 17 18 15 10 8 9 10 10 9 7 8 11 12 13 14 16 15 14 11 7 6 9 15 17 13 11 12 9 14 25 25 19 20 18 16 16 9 4 8 11 11 11 8 6 8 2 0 8 8 3 5 5 7 9 5 5 9 9 9 10 6 2 1 6 11 9 7 10 15 15 14 15 15 15 19 23 17
8 9 11 11 13 14 14 15 16 15 18 21 17 10 7 9 10 10 7 6 8 11 13 14 15 15 15 15 16 16 13 9 6 8 14 14 12 13 12 11 20 26 19 18 22 19 16 11 4 7 12 9 10 10 7 11 9 3 5 6 5 6 1 1 9 8 4 7 8 8 9 8 6 2 2 8 12 10 8 10 11 9 10 12 9 11 24 30
8 9 12 13 14 15 16 18 16 16 21 21 12 5 6 8 7 6 6 8 13 14 13 14 13 13 16 18 20 21 18 13 9 7 11 14 13 14 15 13 16 25 21 15 22 22 17 14 4 3 13 9 8 12 7 7 10 5 4 5 7 8 1 -2 5 6 5 6 7 8 8 7 7 6 6 7 13 17 12 9 10 9 6 6 4 4 14 27
9 11 14 15 16 18 18 17 16 18 22 17 7 3 6 6 4 7 11 15 16 15 15 16 18 26 33 35 37 37 34 26 17 13 11 12 14 13 14 15 13 21 23 14 17 23 20 17 6 1 10 9 8 14 11 8 8 6 6 5 5 9 6 2 2 2 4 5 5 7 10 11 10 8 9 6 9 20 20 12 11 11 8 6 5 3 2 6
10 12 15 17 18 19 18 16 17 21 23 15 5 4 5 4 7 12 14 15 16 16 18 22 29 38 37 29 28 33 38 38 32 25 19 15 16 14 12 16 14 17 22 16 15 20 21 20 11 4 8 10 10 14 15 14 11 8 7 4 4 8 9 7 1 -1 4 6 5 8 11 17 17 10 9 5 1 8 15 15 12 7 8 10 8 5 4 1
10 8 14 22 21 17 17 18 19 22 20 11 4 4 4 6 11 13 13 14 17 19 24 30 35 36 25 15 18 24 28 33 32 32 29 23 22 20 14 16 18 16 16 17 17 16 18 22 17 7 4 7 11 14 17 17 13 8 7 6 6 4 7 10 3 -1 4 5 6 8 9 19 24 12 10 13 6 1 7 15 14 7 9 11 5 4 7 7
10 8 13 21 22 19 19 21 23 22 17 9 4 4 7 10 12 11 12 15 19 25 31 32 28 26 23 20 21 21 19 21 22 24 28 27 26 27 20 16 21 19 13 16 21 14 13 21 20 9 -0 1 7 12 14 15 12 9 7 6 8 6 5 8 5 4 5 1 4 8 5 15 22 9 6 14 14 10 12 18 18 12 12 11 4 5 9 8
12 13 13 15 19 21 22 23 23 19 13 9 6 7 10 14 13 12 14 16 21 32 36 25 15 14 18 19 16 12 10 11 14 14 18 22 25 28 26 20 22 23 14 14 21 18 12 14 20 18 3 -2 7 14 13 12 9 9 6 2 6 7 5 6 7 9 7 -2 3 9 -0 4 15 12 8 10 12 14 14 17 17 11 10 12 10 9 9 7
14 15 14 13 16 20 21 19 18 15 11 6 6 11 14 15 13 13 17 18 23 34 31 17 10 11 12 14 13 10 7 5 8 10 12 17 20 24 28 26 23 23 19 17 20 21 16 9 16 26 10 -6 4 16 16 14 10 10 7 2 5 6 5 7 6 6 7 1 3 9 2 2 10 13 14 15 13 13 13 13 13 9 7 11 15 17 15 10
14 14 15 14 16 21 21 17 16 15 10 6 7 13 13 11 13 17 19 18 24 35 28 11 9 12 12 14 12 7 6 6 6 8 10 13 16 19 25 31 30 21 17 23 22 18 18 11 10 27 21 -4 -3 12 16 14 12 13 9 3 6 8 4 7 6 3 7 6 3 6 7 6 10 16 21 20 13 8 9 9 8 7 6 7 13 19 22 20
13 14 15 14 16 22 20 16 16 13 9 8 11 13 11 8 14 21 22 20 24 35 29 13 10 12 10 13 12 7 7 8 8 10 12 13 15 19 22 30 39 28 13 23 29 16 17 17 7 21 30 4 -7 9 17 14 12 14 12 4 4 8 4 5 6 4 6 6 1 6 10 8 13 20 17 13 9 4 3 5 5 6 8 11 15 18 21 23
14 15 16 15 17 20 18 16 15 11 9 10 12 14 12 9 15 23 26 25 23 25 21 12 11 12 8 8 10 8 7 8 9 9 12 14 14 19 23 26 40 39 16 18 33 20 14 20 9 15 30 12 -6 3 14 14 11 12 15 9 4 7 7 5 5 4 6 5 3 10 9 1 8 18 10 3 5 4 4 7 9 10 12 14 15 14 16 20
16 17 17 17 17 17 18 16 14 12 12 11 13 15 11 10 18 22 23 27 24 20 15 9 12 19 17 10 9 9 8 9 10 9 11 15 11 13 23 24 36 47 25 15 35 28 12 17 13 12 26 18 -1 1 11 13 10 10 15 14 7 5 7 7 5 5 7 3 4 12 7 -4 6 17 10 4 7 8 7 8 8 11 14 14 12 11 13 17
17 17 16 16 15 14 16 16 13 13 15 14 15 16 10 10 20 24 22 24 24 22 18 14 17 20 18 16 15 16 16 15 15 10 7 11 10 10 20 24 34 49 32 16 34 33 14 16 15 10 22 22 6 3 8 7 8 12 14 14 11 6 4 6 5 4 7 2 3 11 5 -1 11 15 4 5 11 11 8 7 6 8 11 10 9 10 13 15
Height
5863 5862 5862 5862 5861 5861 5861 5860 5860 5860 5859 5859 5859 5859 5859 5858 5858 5857 5857 5858 5858 5857 5857 5857 5857 5857 5858 5858 5859 5860 5860 5860 5860 5862 5863 5864 5864 5864 5865 5866 5867 5868 5869 5870 5871 5873 5874 5874 5874 5875 5876 5877 5878 5879 5880 5881 5883 5884 5886 5888 5888 5889 5890 5890 5891 5892 5893 5895 5896 5896 5897 5897 5897 5898 5898 5897 5897 5897 5898 5898 5898 5899 5899 5899 5899 5899 5900 5900
5860 5860 5860 5859 5859 5859 5859 5858 5858 5858 5857 5857 5857 5857 5857 5857 5856 5856 5855 5855 5856 5856 5856 5856 5856 5856 5855 5856 5857 5858 5858 5859 5859 5860 5861 5862 5862 5862 5862 5863 5864 5866 5867 5868 5869 5871 5872 5872 5873 5874 5875 5875 5876 5878 5880 5880 5881 5883 5885 5887 5888 5889 5889 5889 5890 5891 5893 5894 5895 5896 5896 5897 5897 5898 5898 5898 5897 5897 5898 5898 5898 5898 5899 5899 5899 5899 5899 5900
5858 5857 5857 5857 5857 5856 5856 5856 5855 5855 5855 5855 5855 5855 5855 5855 5855 5854 5854 5853 5854 5854 5854 5854 5854 5854 5854 5854 5855 5856 5856 5857 5857 5859 5860 5860 5860 5861 5861 5862 5862 5863 5864 5865 5867 5868 5869 5869 5870 5871 5872 5873 5874 5877 5878 5879 5880 5882 5884 5886 5888 5888 5888 5888 5889 5890 5892 5893 5895 5895 5895 5896 5897 5897 5897 5898 5897 5897 5898 5898 5898 5898 5899 5899 5899 5899 5898 5900
5855 5855 5854 5854 5854 5854 5853 5853 5853 5853 5852 5852 5852 5852 5852 5852 5852 5852 5852 5852 5852 5852 5852 5852 5852 5852 5852 5852 5852 5853 5854 5855 5856 5857 5858 5858 5859 5859 5860 5860 5860 5861 5862 5863 5865 5866 5867 5868 5869 5870 5870 5871 5872 5875 5877 5878 5879 5881 5883 5884 5886 5888 5888 5888 5889 5890 5891 5893 5894 5895 5895 5895 5896 5896 5897 5897 5897 5897 5898 5898 5898 5898 5899 5898 5898 5898 5898 5899
5852 5852 5852 5851 5851 5851 5850 5850 5850 5850 5850 5850 5849 5849 5849 5849 5849 5850 5850 5849 5849 5850 5850 5850 5850 5850 5851 5850 5850 5851 5852 5853 5854 5855 5856 5856 5856 5857 5858 5858 5858 5859 5861 5862 5864 5864 5866 5868 5869 5870 5870 5870 5872 5874 5876 5876 5877 5879 5881 5883 5885 5887 5887 5887 5888 5889 5891 5892 5893 5895 5895 5895 5895 5895 5896 5897 5897 5897 5898 5898 5898 5899 5899 5898 5898 5898 5898 5899
5849 5849 5849 5848 5848 5848 5847 5847 5847 5847 5847 5847 5847 5846 5846 5846 5846 5846 5847 5847 5847 5847 5848 5848 5848 5848 5848 5849 5849 5849 5849 5851 5853 5853 5853 5854 5854 5855 5856 5857 5857 5858 5860 5861 5862 5863 5865 5867 5868 5869 5870 5870 5872 5874 5874 5875 5876 5877 5879 5881 5884 5886 5886 5887 5887 5889 5890 5892 5893 5894 5895 5894 5894 5894 5895 5896 5897 5897 5898 5899 5899 5899 5899 5898 5898 5898 5898 5899
5847 5846 5846 5846 5845 5845 5844 5844 5844 5844 5844 5844 5844 5843 5843 5843 5843 5843 5843 5844 5844 5844 5845 5846 5846 5846 5846 5846 5847 5847 5847 5848 5850 5850 5850 5852 5853 5853 5854 5855 5855 5856 5858 5859 5860 5862 5864 5865 5867 5868 5868 5870 5872 5873 5873 5874 5875 5876 5877 5879 5881 5883 5885 5885 5887 5888 5890 5891 5892 5893 5894 5894 5894 5894 5895 5896 5897 5897 5898 5899 5899 5899 5898 5898 5898 5898 5899 5899
5845 5844 5843 5843 5842 5842 5841 5841 5841 5840 5840 5840 5840 5840 5840 5840 5840 5840 5840 5840 5840 5841 5842 5843 5843 5843 5843 5844 5844 5844 5844 5846 5847 5847 5848 5850 5851 5851 5852 5853 5853 5854 5855 5856 5857 5859 5861 5863 5865 5865 5867 5868 5870 5871 5871 5873 5874 5875 5876 5876 5878 5880 5882 5884 5886 5887 5888 5890 5892 5893 5893 5893 5893 5893 5894 5895 5896 5897 5897 5898 5899 5899 5898 5898 5898 5898 5899 5899
5842 5841 5841 5840 5840 5839 5838 5838 5837 5837 5837 5837 5837 5837 5837 5837 5837 5836 5836 5836 5837 5837 5838 5839 5840 5840 5841 5841 5841 5842 5841 5842 5844 5844 5845 5847 5848 5848 5849 5850 5851 5852 5853 5854 5855 5857 5859 5862 5862 5863 5864 5865 5867 5868 5869 5872 5874 5874 5873 5874 5876 5877 5879 5882 5884 5886 5887 5888 5890 5891 5892 5892 5892 5892 5893 5894 5896 5896 5897 5897 5898 5899 5898 5898 5898 5899 5899 5899
5840 5840 5839 5838 5837 5836 5836 5835 5835 5835 5834 5834 5834 5834 5834 5833 5833 5833 5833 5833 5833 5834 5834 5835 5836 5837 5838 5838 5839 5838 5838 5839 5840 5841 5843 5844 5845 5845 5846 5847 5848 5849 5850 5852 5853 5855 5857 5858 5858 5859 5860 5860 5863 5865 5867 5871 5872 5871 5869 5871 5874 5875 5877 5880 5882 5884 5885 5887 5889 5890 5891 5891 5891 5891 5893 5894 5895 5896 5896 5897 5898 5898 5898 5898 5898 5899 5899 5899
5838 5837 5836 5836 5835 5834 5833 5833 5832 5832 5831 5830 5831 5831 5831 5830 5830 5829 5829 5829 5829 5830 5831 5831 5832 5833 5834 5835 5835 5834 5835 5836 5837 5838 5840 5841 5842 5842 5843 5844 5845 5846 5847 5849 5851 5852 5852 5853 5853 5854 5856 5858 5860 5862 5865 5868 5869 5867 5867 5870 5872 5873 5874 5877 5880 5882 5884 5887 5888 5889 5890 5891 5891 5891 5892 5894 5894 5895 5896 5897 5898 5898 5898 5898 5898 5898 5899 5899
5835 5835 5834 5833 5832 5832 5831 5830 5830 5829 5828 5827 5827 5828 5828 5827 5827 5826 5826 5825 5826 5827 5827 5828 5828 5829 5830 5830 5830 5831 5832 5833 5834 5835 5836 5837 5838 5839 5839 5840 5841 5842 5844 5846 5847 5847 5848 5849 5850 5853 5855 5856 5858 5860 5862 5864 5864 5864 5865 5868 5870 5871 5873 5875 5878 5881 5884 5886 5887 5888 5889 5890 5890 5890 5892 5893 5894 5895 5896 5897 5898 5898 5899 5898 5898 5898 5898 5898
5833 5832 5831 5831 5830 5829 5828 5827 5827 5826 5825 5824 5824 5824 5824 5824 5823 5823 5822 5822 5822 5823 5823 5824 5824 5825 5826 5824 5825 5828 5829 5829 5830 5830 5832 5834 5835 5835 5836 5837 5837 5838 5840 5841 5842 5843 5845 5846 5848 5850 5852 5853 5855 5857 5859 5861 5861 5862 5863 5866 5868 5868 5871 5874 5875 5879 5883 5884 5885 5887 5889 5890 5890 5890 5892 5893 5893 5894 5895 5897 5897 5898 5898 5898 5897 5897 5897 5897
5829 5828 5828 5827 5826 5825 5824 5824 5823 5822 5821 5820 5820 5820 5820 5820 5819 5819 5818 5817 5819 5820 5820 5820 5821 5821 5821 5820 5821 5824 5824 5825 5826 5827 5829 5831 5832 5832 5833 5834 5834 5835 5837 5838 5839 5841 5843 5844 5845 5846 5848 5850 5853 5854 5857 5858 5858 5860 5861 5863 5865 5866 5869 5872 5873 5877 5880 5883 5884 5887 5889 5889 5889 5890 5891 5892 5892 5893 5894 5895 5897 5897 5898 5898 5897 5897 5897 5896
5825 5824 5823 5823 5822 5821 5820 5819 5818 5818 5817 5816 5816 5816 5816 5815 5814 5814 5812 5813 5815 5816 5816 5817 5817 5817 5817 5816 5817 5819 5819 5821 5822 5825 5826 5827 5828 5829 5829 5830 5831 5831 5833 5834 5835 5838 5840 5841 5843 5844 5847 5848 5849 5851 5853 5855 5856 5857 5858 5860 5863 5865 5869 5870 5871 5875 5878 5880 5882 5885 5888 5889 5889 5890 5889 5890 5891 5892 5893 5894 5896 5896 5897 5898 5898 5897 5897 5896
5821 5820 5819 5818 5818 5816 5816 5815 5814 5813 5812 5812 5811 5811 5811 5810 5809 5808 5807 5808 5810 5811 5812 5813 5813 5814 5813 5813 5813 5813 5814 5817 5819 5821 5822 5823 5824 5825 5825 5826 5827 5828 5829 5831 5832 5834 5836 5838 5840 5842 5844 5844 5846 5849 5851 5852 5852 5854 5855 5859 5862 5864 5867 5868 5869 5873 5876 5877 5879 5883 5886 5887 5889 5889 5888 5889 5889 5891 5892 5894 5895 5896 5896 5897 5898 5897 5897 5896
5817 5815 5814 5814 5813 5812 5811 5810 5809 5808 5808 5807 5806 5806 5806 5804 5803 5802 5800 5802 5804 5805 5806 5807 5808 5809 5809 5810 5809 5809 5810 5812 5815 5816 5817 5819 5819 5821 5822 5823 5824 5825 5826 5827 5828 5830 5833 5835 5837 5839 5840 5841 5843 5846 5847 5848 5850 5852 5855 5859 5861 5863 5865 5866 5868 5871 5873 5875 5877 5880 5884 5886 5887 5888 5887 5887 5888 5889 5892 5893 5895 5895 5896 5897 5897 5897 5897 5896
5812 5810 5809 5808 5807 5806 5805 5804 5803 5803 5802 5801 5800 5800 5800 5798 5797 5795 5794 5796 5798 5799 5800 5801 5803 5803 5804 5805 5805 5805 5805 5807 5809 5810 5811 5814 5815 5815 5817 5818 5819 5820 5821 5822 5824 5828 5830 5832 5834 5835 5836 5838 5840 5843 5845 5849 5852 5854 5856 5859 5860 5862 5863 5865 5867 5869 5871 5873 5875 5877 5881 5884 5886 5886 5886 5886 5886 5888 5890 5892 5893 5895 5896 5896 5897 5897 5897 5896
5807 5805 5803 5802 5801 5799 5799 5798 5796 5796 5795 5794 5793 5793 5793 5792 5791 5788 5787 5789 5792 5792 5793 5794 5796 5797 5798 5800 5800 5801 5801 5801 5802 5804 5806 5808 5809 5810 5811 5812 5813 5815 5816 5818 5821 5824 5827 5829 5829 5831 5834 5838 5842 5844 5847 5850 5852 5853 5855 5857 5859 5860 5862 5864 5866 5867 5868 5870 5872 5875 5879 5882 5883 5884 5884 5884 5885 5887 5888 5890 5892 5894 5895 5896 5897 5897 5897 5896
5801 5799 5797 5796 5794 5792 5791 5790 5789 5788 5788 5788 5787 5786 5785 5784 5783 5781 5779 5780 5784 5785 5786 5787 5789 5790 5792 5794 5795 5796 5797 5795 5794 5797 5800 5803 5803 5804 5805 5807 5808 5810 5812 5816 5819 5820 5822 5823 5825 5831 5838 5840 5841 5843 5844 5846 5848 5850 5851 5854 5856 5858 5860 5863 5864 5864 5865 5867 5870 5873 5876 5878 5880 5882 5882 5882 5883 5884 5886 5889 5891 5893 5894 5895 5896 5896 5896 5896
5796 5793 5790 5789 5787 5786 5784 5783 5781 5780 5780 5780 5780 5779 5778 5776 5776 5775 5773 5771 5773 5778 5779 5779 5781 5782 5784 5787 5788 5790 5790 5789 5788 5789 5793 5796 5797 5798 5799 5801 5803 5805 5809 5813 5814 5815 5815 5817 5825 5834 5837 5836 5836 5837 5839 5842 5844 5846 5848 5851 5853 5855 5858 5861 5861 5861 5862 5864 5868 5870 5873 5875 5877 5879 5879 5880 5882 5883 5885 5888 5889 5891 5893 5894 5895 5896 5896 5896
5790 5787 5784 5782 5781 5779 5777 5775 5773 5772 5772 5772 5772 5772 5770 5769 5768 5768 5769 5765 5762 5768 5771 5772 5773 5774 5776 5779 5781 5783 5783 5782 5782 5783 5786 5789 5791 5793 5793 5795 5798 5801 5805 5806 5807 5809 5810 5816 5827 5833 5831 5830 5832 5833 5835 5838 5840 5842 5844 5847 5850 5853 5856 5857 5859 5860 5859 5861 5866 5868 5870 5873 5875 5876 5876 5878 5880 5882 5883 5885 5886 5889 5890 5892 5894 5895 5896 5895
5785 5782 5779 5776 5775 5773 5771 5769 5767 5765 5764 5763 5763 5763 5762 5761 5760 5760 5762 5761 5756 5758 5762 5763 5764 5765 5768 5771 5772 5775 5775 5775 5776 5778 5780 5782 5785 5787 5787 5790 5792 5795 5798 5799 5801 5804 5808 5818 5828 5827 5824 5826 5827 5829 5832 5834 5836 5837 5839 5843 5848 5852 5854 5856 5858 5858 5856 5859 5863 5864 5866 5870 5871 5871 5873 5876 5877 5878 5880 5881 5883 5886 5888 5890 5892 5893 5894 5894
5779 5777 5774 5771 5769 5767 5765 5763 5760 5758 5757 5756 5755 5755 5754 5753 5752 5751 5753 5754 5752 5751 5753 5755 5755 5756 5759 5762 5764 5766 5766 5768 5769 5771 5774 5776 5778 5781 5783 5786 5787 5789 5792 5794 5796 5799 5806 5817 5822 5818 5818 5822 5824 5826 5828 5830 5832 5834 5836 5840 5846 5850 5853 5855 5855 5853 5854 5856 5859 5861 5862 5864 5866 5867 5871 5874 5874 5874 5876 5878 5880 5884 5886 5887 5889 5891 5893 5893
5773 5771 5769 5766 5763 5761 5759 5757 5754 5752 5750 5749 5748 5747 5747 5746 5744 5744 5745 5746 5746 5745 5746 5747 5747 5748 5750 5754 5756 5757 5759 5760 5760 5763 5767 5771 5772 5775 5778 5780 5782 5785 5787 5789 5790 5794 5802 5811 5814 5811 5813 5818 5820 5822 5825 5827 5830 5831 5834 5839 5844 5848 5850 5851 5850 5850 5851 5853 5855 5857 5857 5860 5863 5866 5870 5871 5870 5872 5875 5876 5879 5882 5884 5885 5888 5891 5893 5893
5768 5765 5763 5760 5758 5755 5754 5752 5750 5748 5745 5744 5743 5742 5742 5740 5739 5738 5738 5739 5740 5739 5739 5739 5740 5741 5743 5746 5748 5750 5751 5751 5751 5755 5759 5763 5765 5767 5770 5774 5777 5780 5782 5783 5784 5787 5796 5805 5807 5805 5807 5812 5814 5817 5821 5824 5826 5829 5834 5839 5842 5844 5845 5846 5846 5846 5847 5849 5852 5853 5853 5857 5860 5863 5868 5868 5868 5871 5873 5875 5878 5880 5882 5884 5886 5888 5891 5893
5763 5760 5758 5756 5754 5752 5750 5749 5747 5746 5744 5742 5740 5739 5738 5736 5735 5734 5733 5734 5735 5734 5732 5733 5734 5734 5736 5738 5741 5743 5742 5742 5744 5747 5750 5755 5758 5760 5764 5767 5771 5774 5776 5776 5776 5781 5791 5798 5799 5799 5802 5805 5808 5813 5818 5821 5824 5829 5834 5835 5835 5838 5840 5842 5843 5842 5844 5847 5849 5848 5849 5852 5855 5859 5864 5865 5866 5868 5870 5873 5876 5878 5880 5883 5884 5886 5889 5891
5759 5756 5754 5752 5750 5748 5747 5746 5745 5744 5742 5740 5739 5737 5735 5733 5732 5731 5730 5729 5730 5730 5728 5729 5729 5729 5730 5731 5733 5735 5735 5735 5737 5738 5742 5747 5751 5755 5758 5760 5763 5766 5768 5769 5771 5777 5787 5792 5794 5796 5798 5802 5806 5813 5817 5818 5822 5828 5830 5829 5829 5833 5835 5838 5839 5839 5842 5843 5841 5843 5845 5847 5850 5855 5859 5861 5863 5866 5869 5873 5875 5876 5878 5881 5883 5885 5887 5889
5755 5753 5750 5748 5746 5745 5744 5744 5743 5741 5740 5737 5736 5734 5732 5730 5729 5727 5727 5725 5725 5725 5725 5726 5725 5725 5725 5725 5725 5727 5728 5729 5729 5730 5735 5739 5743 5749 5750 5750 5753 5757 5760 5763 5766 5772 5782 5787 5788 5790 5794 5800 5805 5810 5812 5813 5818 5824 5825 5824 5826 5828 5830 5832 5832 5834 5838 5834 5833 5839 5841 5841 5846 5852 5854 5855 5860 5865 5869 5873 5873 5875 5876 5878 5881 5883 5885 5887
5752 5749 5747 5745 5744 5742 5741 5740 5739 5738 5736 5734 5731 5730 5728 5726 5725 5723 5722 5721 5720 5721 5721 5722 5722 5722 5722 5721 5719 5719 5721 5723 5723 5724 5728 5730 5735 5740 5741 5741 5745 5748 5753 5757 5760 5767 5776 5779 5780 5784 5790 5796 5800 5803 5806 5808 5813 5818 5819 5819 5821 5822 5824 5826 5825 5831 5830 5822 5827 5837 5838 5837 5841 5846 5849 5851 5859 5866 5869 5870 5871 5872 5873 5875 5877 5879 5881 5885
5748 5746 5744 5742 5741 5739 5738 5736 5735 5733 5731 5729 5726 5725 5723 5721 5720 5718 5716 5715 5715 5715 5716 5717 5717 5717 5717 5717 5716 5714 5715 5717 5718 5719 5721 5723 5726 5730 5732 5734 5737 5741 5746 5751 5756 5761 5767 5770 5774 5780 5785 5789 5792 5795 5799 5802 5807 5811 5812 5813 5815 5815 5818 5819 5819 5823 5818 5813 5824 5836 5836 5833 5833 5841 5848 5851 5859 5864 5865 5868 5869 5870 5872 5873 5875 5877 5879 5882
5745 5742 5740 5738 5737 5736 5735 5733 5731 5728 5725 5723 5721 5719 5718 5716 5715 5713 5712 5710 5709 5709 5711 5711 5712 5712 5711 5712 5713 5712 5711 5711 5712 5713 5715 5716 5717 5720 5723 5725 5730 5734 5739 5745 5749 5753 5759 5765 5770 5773 5777 5781 5785 5788 5791 5794 5799 5804 5805 5806 5808 5809 5811 5811 5811 5813 5808 5810 5824 5833 5833 5827 5827 5840 5848 5850 5856 5860 5863 5867 5867 5868 5871 5872 5874 5875 5877 5879
5741 5738 5736 5735 5733 5732 5731 5729 5726 5723 5720 5718 5716 5714 5713 5711 5710 5709 5708 5706 5703 5704 5705 5705 5706 5706 5706 5707 5708 5708 5707 5706 5706 5707 5709 5710 5710 5712 5714 5718 5724 5728 5732 5738 5741 5745 5752 5758 5760 5765 5771 5775 5778 5782 5786 5788 5792 5796 5798 5800 5802 5803 5804 5804 5805 5807 5807 5811 5822 5830 5829 5821 5824 5839 5845 5847 5853 5858 5861 5864 5865 5866 5868 5870 5872 5873 5875 5877
5737 5734 5732 5731 5730 5728 5726 5723 5720 5718 5715 5713 5711 5709 5708 5707 5706 5705 5704 5702 5700 5700 5700 5699 5700 5701 5701 5701 5702 5703 5703 5702 5701 5701 5703 5704 5705 5705 5708 5712 5717 5721 5725 5730 5733 5737 5744 5748 5753 5760 5765 5768 5772 5778 5783 5786 5790 5794 5797 5799 5801 5802 5803 5804 5805 5806 5807 5810 5820 5828 5823 5815 5822 5836 5843 5847 5851 5853 5857 5861 5862 5864 5865 5866 5868 5869 5871 5874
5733 5731 5729 5727 5726 5723 5721 5718 5715 5713 5711 5709 5707 5705 5703 5702 5701 5700 5699 5698 5697 5696 5695 5695 5695 5695 5695 5695 5696 5697 5697 5697 5696 5696 5697 5698 5699 5699 5702 5706 5710 5714 5718 5722 5725 5730 5736 5743 5749 5753 5757 5761 5767 5774 5779 5782 5785 5790 5794 5794 5796 5801 5804 5804 5804 5807 5808 5810 5817 5821 5815 5813 5824 5835 5841 5845 5846 5849 5854 5857 5860 5861 5863 5863 5863 5864 5867 5870
5729 5727 5725 5724 5721 5718 5716 5713 5710 5708 5706 5703 5702 5700 5699 5698 5697 5696 5694 5693 5692 5691 5691 5690 5689 5690 5689 5689 5690 5690 5690 5691 5691 5691 5691 5692 5693 5694 5696 5699 5703 5707 5710 5713 5718 5723 5729 5738 5744 5746 5752 5759 5764 5769 5773 5776 5781 5785 5786 5788 5794 5799 5800 5801 5803 5807 5808 5808 5812 5816 5813 5816 5826 5833 5838 5841 5842 5846 5850 5854 5858 5860 5861 5861 5861 5863 5866 5867
5725 5723 5721 5719 5717 5713 5711 5708 5705 5703 5700 5698 5697 5695 5694 5693 5692 5691 5690 5689 5687 5686 5685 5684 5683 5683 5683 5683 5684 5683 5683 5684 5685 5686 5685 5685 5686 5688 5690 5693 5696 5700 5703 5706 5711 5716 5723 5732 5738 5742 5748 5754 5756 5760 5765 5771 5776 5779 5783 5789 5793 5794 5795 5799 5801 5803 5804 5802 5806 5812 5812 5816 5823 5828 5834 5839 5841 5844 5848 5852 5856 5858 5859 5860 5861 5864 5865 5867
5722 5720 5717 5714 5712 5709 5706 5703 5700 5697 5695 5693 5692 5690 5689 5688 5687 5686 5685 5683 5682 5680 5679 5678 5676 5676 5676 5676 5676 5676 5677 5677 5678 5679 5679 5678 5679 5682 5685 5688 5690 5694 5696 5699 5704 5710 5717 5726 5732 5736 5741 5745 5749 5754 5759 5764 5770 5775 5783 5788 5787 5787 5792 5794 5794 5795 5797 5796 5800 5807 5809 5812 5819 5824 5831 5837 5840 5844 5847 5850 5853 5855 5857 5859 5861 5864 5865 5866
5718 5715 5712 5709 5707 5704 5701 5698 5695 5693 5690 5689 5687 5685 5684 5683 5682 5681 5679 5677 5676 5674 5672 5671 5669 5668 5668 5668 5668 5668 5669 5670 5671 5672 5672 5672 5673 5677 5680 5682 5685 5687 5690 5693 5697 5704 5711 5718 5725 5730 5735 5739 5743 5747 5753 5761 5767 5771 5777 5778 5778 5784 5790 5791 5791 5793 5795 5794 5798 5805 5806 5809 5816 5822 5828 5834 5838 5842 5845 5848 5851 5853 5855 5858 5860 5862 5864 5864
5714 5711 5708 5705 5702 5699 5696 5693 5691 5688 5686 5684 5683 5681 5680 5679 5677 5675 5673 5671 5669 5667 5664 5663 5661 5660 5659 5659 5658 5658 5659 5661 5663 5665 5666 5666 5668 5671 5674 5677 5679 5681 5684 5687 5691 5698 5704 5710 5718 5725 5729 5733 5737 5742 5751 5759 5763 5766 5768 5768 5772 5778 5784 5786 5787 5790 5792 5793 5796 5801 5802 5807 5816 5821 5824 5829 5835 5838 5841 5845 5848 5851 5853 5856 5858 5860 5863 5864
5710 5707 5703 5700 5697 5694 5691 5688 5686 5684 5682 5680 5678 5676 5675 5674 5672 5670 5668 5665 5662 5660 5657 5654 5653 5651 5649 5648 5647 5648 5650 5652 5655 5657 5659 5660 5661 5664 5667 5670 5673 5675 5678 5680 5685 5692 5697 5701 5711 5719 5722 5726 5733 5740 5747 5752 5755 5760 5763 5764 5769 5774 5777 5779 5779 5782 5786 5788 5792 5796 5797 5804 5814 5818 5820 5826 5831 5835 5838 5842 5845 5848 5850 5853 5855 5858 5861 5862
5707 5703 5700 5696 5693 5689 5686 5683 5681 5679 5677 5675 5674 5672 5671 5669 5667 5664 5661 5658 5655 5652 5649 5646 5644 5642 5640 5639 5638 5638 5640 5643 5646 5649 5651 5653 5654 5657 5660 5663 5666 5669 5671 5674 5677 5684 5689 5694 5704 5713 5717 5723 5731 5737 5742 5745 5749 5753 5756 5760 5767 5770 5772 5775 5777 5781 5784 5784 5789 5793 5793 5801 5813 5816 5819 5823 5827 5831 5835 5837 5841 5844 5847 5850 5852 5855 5858 5860
5703 5699 5696 5692 5688 5685 5681 5679 5677 5675 5673 5671 5670 5668 5666 5664 5662 5658 5654 5651 5647 5644 5640 5637 5635 5634 5633 5632 5632 5633 5634 5636 5638 5641 5643 5645 5647 5650 5653 5656 5660 5663 5665 5668 5671 5676 5683 5688 5697 5709 5715 5721 5729 5733 5735 5739 5743 5747 5751 5756 5760 5764 5768 5773 5776 5779 5781 5781 5787 5790 5791 5802 5813 5815 5817 5821 5823 5827 5831 5833 5837 5840 5843 5846 5848 5851 5854 5856
5700 5695 5692 5688 5685 5681 5678 5675 5673 5671 5669 5667 5666 5664 5661 5659 5655 5651 5648 5644 5640 5637 5633 5630 5628 5628 5628 5628 5629 5629 5629 5630 5632 5634 5636 5638 5641 5643 5646 5650 5654 5657 5659 5662 5664 5669 5676 5682 5690 5703 5711 5714 5721 5725 5727 5731 5736 5741 5746 5749 5753 5759 5765 5768 5771 5773 5775 5778 5785 5787 5792 5804 5811 5811 5813 5816 5819 5823 5826 5829 5833 5836 5839 5842 5844 5847 5849 5852
5696 5692 5688 5684 5681 5678 5675 5672 5669 5667 5665 5664 5662 5659 5656 5653 5649 5645 5641 5638 5635 5631 5627 5625 5625 5624 5624 5625 5625 5625 5625 5626 5627 5629 5631 5632 5634 5637 5640 5643 5647 5651 5654 5656 5658 5663 5670 5675 5682 5694 5701 5705 5710 5716 5719 5723 5728 5733 5739 5743 5749 5756 5760 5763 5766 5767 5770 5777 5781 5783 5793 5804 5806 5805 5808 5811 5815 5819 5822 5825 5829 5831 5835 5837 5839 5841 5844 5847
5693 5688 5684 5680 5677 5675 5672 5669 5666 5664 5662 5660 5657 5654 5651 5647 5643 5640 5636 5632 5629 5626 5623 5622 5622 5622 5621 5622 5622 5622 5623 5623 5624 5625 5626 5627 5629 5631 5633 5636 5640 5644 5648 5650 5654 5658 5663 5668 5674 5684 5693 5699 5705 5710 5714 5718 5723 5729 5735 5740 5746 5752 5755 5759 5761 5763 5769 5776 5777 5781 5794 5801 5800 5801 5805 5808 5812 5816 5818 5822 5825 5828 5831 5833 5835 5837 5839 5842
5690 5685 5681 5676 5673 5671 5668 5666 5663 5661 5659 5656 5653 5649 5646 5643 5638 5634 5630 5627 5623 5621 5619 5619 5619 5619 5619 5619 5619 5619 5620 5620 5620 5621 5621 5622 5624 5625 5627 5630 5633 5637 5642 5645 5649 5653 5656 5661 5668 5676 5687 5695 5700 5705 5710 5714 5719 5725 5731 5736 5742 5748 5751 5754 5758 5763 5769 5772 5773 5782 5793 5796 5797 5800 5804 5806 5810 5813 5815 5819 5821 5824 5826 5829 5832 5834 5835 5838
5688 5683 5678 5673 5670 5668 5665 5662 5660 5658 5655 5652 5649 5645 5642 5639 5634 5630 5625 5622 5619 5617 5616 5616 5616 5616 5616 5616 5616 5617 5617 5617 5617 5617 5617 5618 5619 5620 5622 5624 5626 5630 5635 5639 5643 5647 5649 5656 5663 5670 5680 5690 5696 5701 5707 5711 5716 5722 5727 5733 5738 5742 5746 5751 5756 5761 5766 5768 5772 5782 5790 5793 5795 5799 5801 5804 5807 5809 5812 5815 5817 5820 5822 5825 5828 5830 5832 5835
5685 5681 5676 5671 5668 5666 5663 5660 5657 5655 5652 5649 5646 5642 5639 5636 5631 5626 5622 5617 5615 5614 5614 5614 5614 5614 5614 5614 5614 5614 5614 5615 5615 5614 5614 5614 5615 5616 5617 5619 5620 5624 5628 5633 5638 5641 5644 5651 5658 5662 5673 5685 5693 5697 5702 5706 5713 5719 5724 5728 5732 5737 5743 5748 5753 5758 5762 5766 5773 5782 5788 5790 5793 5796 5798 5800 5803 5806 5809 5812 5814 5817 5820 5823 5825 5827 5830 5832
5683 5679 5674 5670 5666 5663 5661 5658 5655 5652 5649 5646 5643 5639 5636 5633 5628 5623 5619 5615 5612 5612 5612 5612 5612 5612 5611 5611 5612 5612 5612 5612 5612 5612 5611 5611 5612 5612 5612 5614 5615 5617 5622 5627 5632 5635 5640 5647 5652 5656 5667 5681 5688 5693 5697 5702 5709 5716 5720 5723 5728 5734 5740 5744 5750 5755 5759 5764 5773 5781 5786 5788 5790 5792 5794 5797 5799 5803 5806 5809 5812 5815 5818 5820 5822 5824 5827 5829
5681 5677 5673 5669 5665 5662 5659 5656 5653 5650 5647 5643 5640 5637 5633 5630 5625 5620 5616 5613 5611 5610 5610 5610 5610 5609 5609 5609 5609 5609 5609 5609 5609 5608 5608 5608 5608 5608 5608 5609 5610 5611 5616 5621 5626 5631 5636 5642 5647 5651 5662 5675 5683 5689 5694 5699 5706 5711 5715 5718 5724 5730 5735 5740 5746 5751 5755 5762 5772 5779 5783 5785 5787 5788 5791 5793 5796 5800 5803 5806 5810 5812 5815 5818 5820 5822 5824 5826
5680 5676 5672 5668 5664 5660 5657 5654 5651 5648 5645 5641 5638 5635 5631 5627 5622 5618 5614 5611 5610 5609 5609 5608 5608 5607 5606 5606 5606 5606 5606 5605 5605 5605 5604 5604 5604 5604 5604 5604 5604 5606 5611 5615 5621 5628 5633 5638 5642 5646 5656 5669 5678 5684 5691 5696 5701 5705 5709 5714 5720 5725 5731 5737 5742 5747 5752 5759 5768 5773 5778 5782 5783 5785 5788 5790 5793 5797 5801 5804 5807 5811 5814 5816 5819 5821 5822 5825